This demonstration page uses our WeatherBlox Daily Observations layout. Learn more.

Left ArrowRight Arrow

39.51506, -84.39828

Hourly Observations for September 13, 2016

Temp ( °F °C ) Dew Point ( °F °C ) Humidity (%) Winds ( mph kmh ) Pressure ( in mb ) Visibility ( mi km ) Precip ( " mm )
12:15 am 00:15 Clear 60 15.8 55 12.6 81 81 N N/A 30.12 1020 10 16 N/A
12:35 am 00:35 Clear 60 15.3 54 12.2 82 82 N N/A 30.12 1020 10 16 N/A
12:55 am 00:55 Clear 60 15.3 54 12.3 82 82 N 3 6 30.12 1020 10 16 N/A
1:15 am 01:15 Clear 60 15.3 54 12.3 82 82 N N/A 30.12 1020 10 16 N/A
1:35 am 01:35 Clear 60 15.3 54 12.3 82 82 N N/A 30.12 1020 10 16 N/A
1:55 am 01:55 Clear 60 15.3 55 12.5 84 84 N N/A 30.12 1020 10 16 N/A
2:15 am 02:15 Clear 58 14.2 53 11.5 84 84 N 3 6 30.12 1020 10 16 N/A
2:35 am 02:35 Clear 57 14 52 11.1 83 83 N N/A 30.12 1020 10 16 N/A
2:55 am 02:55 Hazy 57 14 52 11.2 83 83 N N/A 30.12 1020 5 8 N/A
3:15 am 03:15 Clear 57 13.8 52 11.2 84 84 N N/A 30.12 1020 10 16 N/A
3:35 am 03:35 Clear 57 13.8 52 11.2 84 84 N N/A 30.12 1020 10 16 N/A
3:55 am 03:55 Hazy 57 13.8 52 11.3 85 85 N N/A 30.12 1020 5 8 N/A
4:15 am 04:15 Clear 57 13.8 52 11.2 84 84 N N/A 30.12 1020 10 16 N/A
4:35 am 04:35 Clear 57 13.8 52 11.3 85 85 N 3 6 30.12 1020 10 16 N/A
4:55 am 04:55 Clear 57 13.8 52 11.3 85 85 N N/A 30.12 1020 10 16 N/A
5:15 am 05:15 Clear 56 13.4 51 10.7 84 84 N 3 6 30.12 1020 10 16 N/A
5:35 am 05:35 Clear 55 12.9 51 10.4 85 85 N 3 6 30.12 1020 10 16 N/A
5:55 am 05:55 Clear 56 13.1 51 10.6 85 85 N N/A 30.12 1020 10 16 N/A
6:15 am 06:15 Clear 55 12.5 50 10 85 85 N N/A 30.12 1020 10 16 N/A
6:35 am 06:35 Clear 55 12.5 50 10 85 85 NNW 3 6 30.12 1020 10 16 N/A
6:55 am 06:55 Clear 55 12.5 50 10 85 85 N N/A 30.12 1020 10 16 N/A
7:15 am 07:15 Clear 55 12.5 50 10 85 85 N N/A 30.12 1020 7 11 N/A
7:35 am 07:35 Sunny 55 12.5 50 10 85 85 N N/A 30.15 1021 7 11 N/A
7:55 am 07:55 Sunny with Mist and Fog 55 12.5 50 10 85 85 N N/A 30.15 1021 5 8 N/A
8:15 am 08:15 Sunny 57 13.8 52 11.3 85 85 N N/A 30.15 1021 10 16 N/A
8:35 am 08:35 Sunny 60 15.3 55 12.7 85 85 N N/A 30.15 1021 10 16 N/A
8:55 am 08:55 Sunny 60 15.5 55 12.6 83 83 N N/A 30.15 1021 10 16 N/A
9:15 am 09:15 Sunny 62 16.6 55 13 79 79 N N/A 30.18 1022 10 16 N/A
9:35 am 09:35 Sunny 64 18 57 14.1 78 78 N N/A 30.15 1021 10 16 N/A
9:55 am 09:55 Sunny 69 20.8 60 15.8 73 73 N N/A 30.15 1021 10 16 N/A
10:15 am 10:15 Sunny 69 20.8 59 15.1 70 70 N N/A 30.15 1021 10 16 N/A
10:35 am 10:35 Sunny 71 21.8 60 15.7 68 68 N N/A 30.15 1021 10 16 N/A
10:55 am 10:55 Sunny 74 23.6 61 16.3 64 64 N N/A 30.15 1021 10 16 N/A
11:15 am 11:15 Sunny 76 24.4 59 14.9 56 56 W 3 6 30.15 1021 10 16 N/A
11:35 am 11:35 Sunny 77 25.1 56 13.1 47 47 W 6 9 30.15 1021 10 16 N/A
11:55 am 11:55 Sunny 77 25.1 51 10.4 40 40 SW 8 13 30.15 1021 10 16 N/A
12:15 pm 12:15 Sunny 80 26.5 52 11 38 38 SSW 3 6 30.15 1021 10 16 N/A
12:35 pm 12:35 Sunny 80 26.5 52 11.1 38 38 WSW 6 9 30.15 1021 10 16 N/A
12:55 pm 12:55 Sunny 80 26.5 50 10.2 36 36 WNW 7 11 30.15 1021 10 16 N/A
1:15 pm 13:15 Sunny 80 26.7 51 10.5 36 36 W 8 13 30.15 1021 10 16 N/A
1:35 pm 13:35 Sunny 81 27.1 51 10.3 35 35 SW 5 7 30.15 1021 10 16 N/A
1:55 pm 13:55 Sunny 80 26.9 49 9.2 33 33 S 3 6 30.12 1020 10 16 N/A
2:15 pm 14:15 Sunny 81 27.2 50 10.1 34 34 SW 5 7 30.12 1020 10 16 N/A
2:35 pm 14:35 Sunny 82 27.6 51 10.7 35 35 SW 7 11 30.12 1020 10 16 N/A
2:55 pm 14:55 Sunny 81 27.2 49 9.5 33 33 SW 6 9 30.12 1020 10 16 N/A
3:15 pm 15:15 Sunny 81 27.2 49 9.4 33 33 SSW 6 9 30.12 1020 10 16 N/A
3:35 pm 15:35 Sunny 82 27.9 49 9.7 32 32 SW 7 11 30.09 1019 10 16 N/A
3:55 pm 15:55 Sunny 82 28 50 10.1 33 33 SW 6 9 30.09 1019 10 16 N/A
4:15 pm 16:15 Sunny 82 28 49 9.6 32 32 WSW 6 9 30.09 1019 10 16 N/A
4:35 pm 16:35 Sunny 82 28 49 9.3 31 31 SW 5 7 30.09 1019 10 16 N/A
4:55 pm 16:55 Sunny 82 28 49 9.5 31 31 WSW 6 9 30.09 1019 10 16 N/A
5:15 pm 17:15 Sunny 82 28 47 8.3 29 29 W 6 9 30.09 1019 10 16 N/A
5:35 pm 17:35 Sunny 82 28 49 9.2 31 31 WSW 5 7 30.09 1019 10 16 N/A
5:55 pm 17:55 Sunny 82 28 49 9.6 32 32 W 5 7 30.09 1019 10 16 N/A
6:15 pm 18:15 Sunny 81 27.2 50 10.1 34 34 SW 5 7 30.09 1019 10 16 N/A
6:35 pm 18:35 Sunny 81 27.2 53 11.7 38 38 WSW 3 6 30.09 1019 10 16 N/A
6:55 pm 18:55 Sunny 80 26.5 55 12.8 43 43 WSW 6 9 30.09 1019 10 16 N/A
7:15 pm 19:15 Sunny 78 25.4 59 15 53 53 WSW 3 6 30.09 1019 10 16 N/A
7:35 pm 19:35 Sunny 74 23.6 63 17.1 67 67 W 3 6 30.09 1019 10 16 N/A
7:55 pm 19:55 Clear 70 21 61 16.1 74 74 W 3 6 30.09 1019 10 16 N/A
8:15 pm 20:15 Clear 69 20.8 61 16.3 76 76 N N/A 30.09 1019 10 16 N/A
8:35 pm 20:35 Clear 69 20.8 62 16.5 77 77 N N/A 30.09 1019 10 16 N/A
8:55 pm 20:55 Clear 69 20.7 62 16.9 79 79 N N/A 30.09 1019 10 16 N/A
9:15 pm 21:15 Clear 67 19.5 61 16 80 80 N N/A 30.12 1020 10 16 N/A
9:35 pm 21:35 Clear 67 19.3 60 15.8 80 80 N N/A 30.12 1020 10 16 N/A
9:55 pm 21:55 Clear 64 18 58 14.7 81 81 N N/A 30.12 1020 10 16 N/A
10:15 pm 22:15 Clear 64 18 59 14.8 82 82 N N/A 30.12 1020 10 16 N/A
10:35 pm 22:35 Clear 64 18 58 14.7 81 81 N N/A 30.12 1020 10 16 N/A
10:55 pm 22:55 Clear 64 17.5 58 14.2 81 81 N N/A 30.12 1020 10 16 N/A
11:15 pm 23:15 Clear 63 17.2 58 14.2 83 83 N N/A 30.12 1020 10 16 N/A
11:35 pm 23:35 Clear 63 17.1 57 13.9 82 82 N N/A 30.12 1020 10 16 N/A
11:55 pm 23:55 Clear 63 17 57 13.8 82 82 N N/A 30.12 1020 10 16 N/A

Powered by AerisWeather